Tracking 30692 objects as of 16-Jun-2025
HD Live streaming from Space Station
objects crossing your sky now

METEOR PRIRODA

Track METEOR PRIRODA now!
10-day predictions
METEOR PRIRODA is classified as:


NORAD ID: 12585
Int'l Code: 1981-065A
Perigee: 365.8 km
Apogee: 374.9 km
Inclination: 97.5 °
Period: 91.8 minutes
Semi major axis: 6741 km
RCS: 4.6163 m2 (large)
Launch date: July 10, 1981
Source: Commonwealth of Independent States (former USSR) (CIS)
Launch site: TYURATAM MISSILE AND SPACE COMPLEX (TTMTR)
Your satellite tracking list
Your tracking list is empty




NASA's NSSDC Master Catalog

Two Line Element Set (TLE):
1 12585U 81065A   25167.09337146  .00041321  00000-0  36582-3 0  9993
2 12585  97.4856 219.0251 0006818 163.9413 196.2065 15.68492031408170
Source of the keplerian elements: AFSPC